Time,TemperatureF,DewpointF,PressureIn,WindDirection,WindDirectionDegrees,WindSpeedMPH,WindSpeedGustMPH,Humidity,HourlyPrecipIn,Conditions,Clouds,dailyrainin,SolarRadiationWatts/m^2,SoftwareType,DateUTC
2013-08-31 00:00:00,50.0,38.0,-100.00,North,4,1.0,2.0,61,-99.99,,,0.00,0.000000,,2013-08-31 06:00:00,
2013-08-31 00:52:00,50.0,38.0,-100.00,North,4,1.0,2.0,61,-99.99,,,0.00,0.000000,,2013-08-31 06:52:00,
2013-08-31 02:00:00,49.0,39.0,-100.00,North,4,1.0,3.0,67,-99.99,,,0.00,0.000000,,2013-08-31 08:00:00,
2013-08-31 02:52:00,49.0,39.0,-100.00,North,4,1.0,3.0,67,-99.99,,,0.00,0.000000,,2013-08-31 08:52:00,
2013-08-31 03:00:00,48.0,39.0,-100.00,North,4,1.0,2.0,69,-99.99,,,-99.99,0.000000,,2013-08-31 09:00:00,
2013-08-31 03:53:00,48.0,39.0,-100.00,North,4,1.0,2.0,69,-99.99,,,-99.99,0.000000,,2013-08-31 09:53:00,
2013-08-31 04:00:00,50.0,40.0,-100.00,North,4,2.0,3.0,70,-99.99,,,0.00,0.000000,,2013-08-31 10:00:00,
2013-08-31 04:53:00,50.0,40.0,-100.00,North,4,2.0,3.0,70,-99.99,,,0.00,0.000000,,2013-08-31 10:53:00,
2013-08-31 07:00:00,50.0,42.0,-100.00,North,4,2.0,3.0,72,-99.99,,,0.00,6.100000,,2013-08-31 13:00:00,
2013-08-31 07:52:00,50.0,42.0,-100.00,North,4,2.0,3.0,72,-99.99,,,0.00,6.100000,,2013-08-31 13:52:00,
2013-08-31 08:00:00,56.0,45.0,-100.00,North,4,1.0,3.0,65,-99.99,,,0.00,108.400002,,2013-08-31 14:00:00,
2013-08-31 08:52:00,56.0,45.0,-100.00,North,4,1.0,3.0,65,-99.99,,,0.00,108.400002,,2013-08-31 14:52:00,
2013-08-31 11:00:00,72.0,41.0,-100.00,North,8,1.0,6.0,32,-99.99,,,-99.99,438.000000,,2013-08-31 17:00:00,
2013-08-31 11:53:00,72.0,41.0,-100.00,North,8,1.0,6.0,32,-99.99,,,-99.99,438.000000,,2013-08-31 17:53:00,
2013-08-31 12:00:00,69.0,38.0,-100.00,North,9,1.0,6.0,33,-99.99,,,0.00,261.600006,,2013-08-31 18:00:00,
2013-08-31 12:52:00,69.0,38.0,-100.00,North,9,1.0,6.0,33,-99.99,,,0.00,261.600006,,2013-08-31 18:52:00,
2013-08-31 16:00:00,65.0,39.0,-100.00,North,9,2.0,6.0,38,-99.99,,,0.00,74.500000,,2013-08-31 22:00:00,
2013-08-31 16:53:00,65.0,39.0,-100.00,North,9,2.0,6.0,38,-99.99,,,0.00,74.500000,,2013-08-31 22:53:00,
2013-08-31 18:00:00,63.0,42.0,-100.00,North,9,1.0,3.0,46,-99.99,,,0.00,55.599998,,2013-09-01 00:00:00,
2013-08-31 18:52:00,63.0,42.0,-100.00,North,9,1.0,3.0,46,-99.99,,,0.00,55.599998,,2013-09-01 00:52:00,
2013-08-31 19:00:00,60.0,41.0,-100.00,North,5,1.0,6.0,49,-99.99,,,0.00,16.200001,,2013-09-01 01:00:00,
2013-08-31 19:52:00,60.0,41.0,-100.00,North,5,1.0,6.0,49,-99.99,,,0.00,16.200001,,2013-09-01 01:52:00,
2013-08-31 20:00:00,53.0,48.0,-100.00,North,8,2.0,7.0,82,-99.99,,,-99.99,0.000000,,2013-09-01 02:00:00,
2013-08-31 20:53:00,53.0,48.0,-100.00,North,8,2.0,7.0,82,-99.99,,,-99.99,0.000000,,2013-09-01 02:53:00,
2013-08-31 21:00:00,-999.0,-99.9,-100.00,North,7,1.0,6.0,-999,-99.99,,,-99.99,,,2013-09-01 03:00:00,
2013-08-31 21:54:00,52.0,49.0,-100.00,North,7,1.0,6.0,90,-99.99,,,0.00,0.000000,,2013-09-01 03:54:00,
2013-08-31 22:00:00,52.0,50.0,-100.00,North,5,1.0,2.0,94,-99.99,,,0.00,0.000000,,2013-09-01 04:00:00,
2013-08-31 22:54:00,52.0,50.0,-100.00,North,5,1.0,2.0,94,-99.99,,,0.00,0.000000,,2013-09-01 04:54:00,
2013-08-31 23:00:00,51.0,50.0,-100.00,North,6,0.0,3.0,95,-99.99,,,0.00,0.000000,,2013-09-01 05:00:00,
2013-08-31 23:52:00,51.0,50.0,-100.00,North,6,0.0,3.0,95,-99.99,,,0.00,0.000000,,2013-09-01 05:52:00,